New Castle, PA

2:18 AM EDT on March 25, 2017 (GMT -0400)
New Castle Municipal

Weather History for KUCP - February, 2014

Change the Weather History Date:

Wednesday, February 5, 2014

  Actual Average Record
Temperature  
Mean Temperature 22 °F -  
Max Temperature 28 °F 35 °F 65 °F (1991)
Min Temperature 17 °F 16 °F -13 °F (1985)
Degree Days  
Heating Degree Days 42    
Moisture  
Dew Point 22 °F    
Average Humidity 92    
Maximum Humidity 100    
Minimum Humidity 79    
Precipitation  
Precipitation 0.20 in - - ()
Sea Level Pressure  
Sea Level Pressure 29.85 in    
Wind  
Wind Speed 6 mph (NNE)    
Max Wind Speed 12 mph    
Max Gust Speed 18 mph    
Visibility 4 miles    
Events Fog , Rain , Snow    
Averages and records for this station are not official NWS values.
T = Trace of Precipitation, MM = Missing Value Source: NWS Daily Summary

Daily Weather History Graph

Daily Weather History Graph

Search for Another Location

Airport or City:

Trip Planner

Search our weather history database for the weather conditions in past years. The results will help you decide how hot, cold, wet, or windy it might be!

Date:

Astronomy

Feb. 05, 2014 Rise Set
Actual Time 7:28 AM EST 5:43 PM EST
Civil Twilight 6:59 AM EST 6:12 PM EST
Nautical Twilight 6:26 AM EST 6:45 PM EST
Astronomical Twilight 5:54 AM EST 7:17 PM EST
Moon 10:38 AM EST (2/5) No Moon Set
Length of Visible Light 11h 13m
Length of Day
10h 15m
Waxing Crescent, 39% of the Moon is Illuminated
Feb 5
Waxing Crescent
Feb 6
First Quarter
Feb 14
Full
Feb 22
Last Quarter
Mar 1
New

Hourly Weather History & Observations

Time (EST) Temp. Windchill Dew Point Humidity Pressure Visibility Wind Dir Wind Speed Gust Speed Precip Events Conditions
12:05 AM 24.8 °F 14.6 °F 23.0 °F 93% 30.03 in 0.8 mi ENE 10.4 mph - 0.00 in Snow Light Snow
12:56 AM 24.8 °F 16.1 °F 23.0 °F 93% 30.01 in 0.5 mi ENE 8.1 mph - N/A Fog , Snow Snow
1:16 AM 24.8 °F 15.3 °F 21.2 °F 86% 29.99 in 0.8 mi ENE 9.2 mph - 0.00 in Snow Light Snow
1:56 AM 23.0 °F 11.7 °F 22.1 °F 96% 30.05 in 0.8 mi ENE 11.5 mph - 0.00 in Snow Light Snow
2:30 AM 23.0 °F 12.4 °F 21.2 °F 93% 29.94 in 1.0 mi ENE 10.4 mph - 0.00 in Snow Light Snow
2:56 AM 23.0 °F 12.4 °F 21.0 °F 92% 29.99 in 1.2 mi East 10.4 mph 18.4 mph 0.00 in Snow Light Snow
3:01 AM 23.0 °F 12.4 °F 21.2 °F 93% 29.90 in 2.0 mi East 10.4 mph 18.4 mph 0.00 in Snow Light Snow
3:10 AM 23.0 °F 13.1 °F 21.2 °F 93% 29.90 in 4.0 mi East 9.2 mph - 0.00 in Snow Light Snow
3:39 AM 23.0 °F 13.1 °F 19.4 °F 86% 29.89 in 5.0 mi East 9.2 mph - 0.00 in Snow Light Snow
3:56 AM 23.0 °F 15.8 °F 19.4 °F 86% 29.89 in 5.0 mi ENE 5.8 mph - N/A Snow Light Snow
4:56 AM 23.0 °F 12.4 °F 20.1 °F 89% 29.89 in 7.0 mi ENE 10.4 mph - 0.00 in Snow Light Snow
5:56 AM 23.0 °F 13.1 °F 21.0 °F 92% 29.83 in 7.0 mi ENE 9.2 mph - 0.00 in   Overcast
6:56 AM 24.8 °F 15.3 °F 21.2 °F 86% 29.68 in 4.0 mi ENE 9.2 mph - N/A Snow Light Snow
7:21 AM 24.8 °F 16.9 °F 23.0 °F 93% 29.65 in 5.0 mi ENE 6.9 mph - 0.00 in Snow Light Snow
7:26 AM 24.8 °F 15.3 °F 23.0 °F 93% 29.64 in 1.8 mi ENE 9.2 mph - 0.00 in Snow Light Snow
7:39 AM 24.8 °F 15.3 °F 23.0 °F 93% 29.63 in 3.0 mi ENE 9.2 mph - 0.00 in Snow Light Snow
7:56 AM 25.2 °F 18.3 °F 24.1 °F 96% 29.70 in 2.0 mi ENE 5.8 mph - 0.00 in Snow Light Snow
8:04 AM 26.6 °F 22.6 °F 24.8 °F 93% 29.62 in 1.8 mi East 3.5 mph - 0.00 in Snow Light Snow
8:31 AM 26.6 °F - 24.8 °F 93% 29.62 in 1.0 mi Calm Calm - 0.00 in Snow Light Snow
8:46 AM 26.6 °F 20.0 °F 26.6 °F 100% 29.66 in 1.0 mi WNW 5.8 mph - 0.02 in Rain Light Freezing Rain
8:56 AM 27.1 °F 20.7 °F 26.1 °F 96% 29.74 in 1.2 mi NW 5.8 mph - 0.02 in Rain Light Freezing Rain
9:00 AM 26.6 °F 20.0 °F 26.6 °F 100% 29.66 in 1.5 mi NW 5.8 mph - 0.00 in Rain Light Freezing Rain
9:03 AM 26.6 °F 21.2 °F 26.6 °F 100% 29.66 in 2.0 mi NW 4.6 mph - 0.00 in Rain Light Freezing Rain
9:06 AM 26.6 °F 22.6 °F 26.6 °F 100% 29.66 in 2.0 mi WNW 3.5 mph - 0.00 in Rain Light Freezing Rain
9:09 AM 26.6 °F 22.6 °F 24.8 °F 93% 29.66 in 1.8 mi NW 3.5 mph - 0.00 in Rain Light Freezing Rain
9:13 AM 26.6 °F 22.6 °F 26.6 °F 100% 29.65 in 1.2 mi Variable 3.5 mph - 0.00 in Rain Light Freezing Rain
9:17 AM 26.6 °F - 26.6 °F 100% 29.65 in 1.0 mi Calm Calm - 0.00 in Rain Light Freezing Rain
9:21 AM 26.6 °F - 26.6 °F 100% 29.65 in 1.2 mi Calm Calm - 0.00 in Rain Light Freezing Rain
9:24 AM 26.6 °F 22.6 °F 26.6 °F 100% 29.64 in 1.2 mi Variable 3.5 mph - 0.00 in Rain Light Freezing Rain
9:28 AM 26.6 °F 22.6 °F 26.6 °F 100% 29.64 in 2.0 mi NE 3.5 mph - 0.00 in Rain Light Freezing Rain
9:36 AM 26.6 °F - 26.6 °F 100% 29.64 in 5.0 mi Calm Calm - 0.00 in Rain Light Freezing Rain
9:56 AM 27.1 °F 21.8 °F 26.1 °F 96% 29.73 in 7.0 mi NNW 4.6 mph - 0.01 in   Overcast
10:17 AM 28.4 °F 24.6 °F 26.6 °F 93% 29.65 in 1.8 mi NW 3.5 mph - 0.00 in   Overcast
10:42 AM 28.4 °F 23.3 °F 26.6 °F 93% 29.66 in 2.5 mi West 4.6 mph - 0.02 in   Overcast
10:56 AM 28.0 °F 21.7 °F 27.1 °F 96% 29.76 in 4.0 mi West 5.8 mph - 0.05 in   Overcast
11:12 AM 28.4 °F 22.2 °F 26.6 °F 93% 29.68 in 10.0 mi West 5.8 mph - 0.02 in   Overcast
11:35 AM 26.6 °F 19.1 °F 26.6 °F 100% 29.68 in 4.0 mi West 6.9 mph - 0.04 in   Overcast
11:56 AM 27.1 °F 17.5 °F 25.2 °F 92% 29.79 in 8.0 mi West 10.4 mph - 0.07 in   Overcast
12:19 PM 26.6 °F 18.2 °F 24.8 °F 93% 29.72 in 7.0 mi West 8.1 mph - 0.02 in   Overcast
12:56 PM 24.8 °F 14.0 °F 23.0 °F 93% 29.73 in 7.0 mi West 11.5 mph - N/A Snow Light Snow
1:20 PM 24.8 °F 20.5 °F 21.2 °F 86% 29.74 in 7.0 mi West 3.5 mph - 0.02 in   Overcast
1:56 PM 24.1 °F 19.7 °F 21.0 °F 88% 29.86 in 4.0 mi WNW 3.5 mph - 0.03 in Snow Light Snow
2:30 PM 23.0 °F - 19.4 °F 86% 29.81 in 3.0 mi Calm Calm - 0.01 in Snow Light Snow
2:56 PM 23.0 °F - 20.1 °F 89% 29.92 in 3.0 mi Calm Calm - 0.02 in Snow Light Snow
3:03 PM 23.0 °F - 19.4 °F 86% 29.84 in 2.0 mi Calm Calm - 0.00 in Snow Light Snow
3:06 PM 23.0 °F - 19.4 °F 86% 29.84 in 1.8 mi Calm Calm - 0.00 in Snow Light Snow
3:21 PM 23.0 °F - 19.4 °F 86% 29.86 in 1.8 mi Calm Calm - 0.00 in Snow Light Snow
3:27 PM 23.0 °F - 19.4 °F 86% 29.87 in 2.0 mi Calm Calm - 0.01 in Snow Light Snow
3:45 PM 23.0 °F - 19.4 °F 86% 29.89 in 1.2 mi Calm Calm - 0.01 in Snow Light Snow
3:56 PM 23.0 °F - 19.4 °F 86% 29.91 in 1.5 mi Calm Calm - N/A Snow Light Snow
4:00 PM 21.2 °F - 19.4 °F 93% 29.91 in 2.0 mi Calm Calm - 0.00 in Snow Light Snow
4:03 PM 21.2 °F - 19.4 °F 93% 29.92 in 3.0 mi Calm Calm - 0.00 in Snow Light Snow
4:56 PM 21.0 °F - 17.1 °F 85% 30.09 in 7.0 mi Calm Calm - 0.00 in Snow Light Snow
5:56 PM 20.1 °F - 16.2 °F 85% 30.15 in 10.0 mi Calm Calm - 0.00 in   Overcast
6:56 PM 20.1 °F - 16.2 °F 85% 30.20 in 10.0 mi Calm Calm - 0.00 in   Overcast
7:56 PM 20.1 °F - 16.2 °F 85% 30.24 in 10.0 mi Calm Calm - 0.00 in Snow Light Snow
8:56 PM 19.0 °F - 16.2 °F 89% 30.27 in 9.0 mi Calm Calm - 0.00 in Snow Light Snow
9:56 PM 19.4 °F - 15.8 °F 86% 30.21 in 8.0 mi Calm Calm - N/A Snow Light Snow
10:21 PM 19.4 °F - 15.8 °F 86% 30.22 in 9.0 mi Calm Calm - 0.00 in Snow Light Snow
10:56 PM 18.1 °F - 14.0 °F 84% 30.33 in 10.0 mi Calm Calm - 0.00 in Snow Light Snow
11:12 PM 17.6 °F - 12.2 °F 79% 30.24 in 10.0 mi Calm Calm - 0.00 in Snow Light Snow
11:56 PM 17.1 °F - 13.1 °F 84% 30.35 in 10.0 mi Calm Calm - 0.00 in Snow Light Snow